ANA180 RJAA-MPTO

Flight info

Callsign ANA180
Flight time N/A
Altitude 31000
Route GULBO Y808 NOLAX Y812 ADNAP OTR5 KALNA 44E60 DCT 47E70 DCT 48E80/N0487F330 DCT 49N70 DCT 49N60 DCT 47N50 DCT 44N40 DCT 41N30/N0479F350 DCT TRYSH DCT ENI DCT AVE J6 LANDO J50 PDZ J93 PPE UT152 CDR/N0480F370 UT152 ASOKU UM419 ANSON DCT AROVI VUMAN2
Aircraft B77W/H-SDE1E2E3FGHIJ2J3J4J5M1RWXYZ/LB1D1

Departure

Time N/A
Airport Narita International Airport (RJAA)

Arrival

Time 2026-05-04 18:41
Airport Tocumen International Airport (MPTO)
Time Latitude Longitude Altitude Speed Heading
2026-05-04 09:39 47.89578 -153.86860 32432 ft 498 kts 111°
2026-05-04 09:39 47.88552 -153.82004 32430 ft 497 kts 111°
2026-05-04 09:39 47.86466 -153.72168 32416 ft 497 kts 111°
2026-05-04 09:40 47.84376 -153.62352 32430 ft 497 kts 111°
2026-05-04 09:40 47.82279 -153.52562 32434 ft 496 kts 111°
2026-05-04 09:42 47.73813 -153.13486 32427 ft 497 kts 112°
2026-05-04 09:43 47.71672 -153.03717 32432 ft 497 kts 112°
2026-05-04 09:43 47.69523 -152.93956 32430 ft 497 kts 112°
2026-05-04 09:44 47.67384 -152.84288 32433 ft 496 kts 112°
2026-05-04 09:46 47.58722 -152.45586 32473 ft 492 kts 114°
2026-05-04 09:46 47.56558 -152.36033 32492 ft 492 kts 114°
2026-05-04 09:47 47.54374 -152.26435 32487 ft 492 kts 113°
2026-05-04 09:49 47.45566 -151.88131 32544 ft 491 kts 114°
2026-05-04 09:51 47.37788 -151.54858 32590 ft 489 kts 116°
2026-05-04 09:51 47.35563 -151.45442 32574 ft 489 kts 115°
2026-05-04 09:52 47.33325 -151.35997 32602 ft 488 kts 116°
2026-05-04 09:52 47.31075 -151.26552 32635 ft 488 kts 116°
2026-05-04 09:53 47.28819 -151.17122 32636 ft 488 kts 116°
2026-05-04 09:53 47.26555 -151.07698 32609 ft 488 kts 116°
2026-05-04 09:54 47.24292 -150.98310 32672 ft 486 kts 116°
2026-05-04 09:54 47.22022 -150.88937 32684 ft 485 kts 117°
2026-05-04 09:55 47.19762 -150.79653 32702 ft 485 kts 117°
2026-05-04 09:55 47.17484 -150.70324 32681 ft 484 kts 117°
2026-05-04 09:56 47.15208 -150.61044 32716 ft 482 kts 117°
2026-05-04 09:56 47.12932 -150.51803 32755 ft 480 kts 117°
2026-05-04 09:57 47.10652 -150.42589 32749 ft 479 kts 117°
2026-05-04 09:57 47.08368 -150.33393 32721 ft 479 kts 118°
2026-05-04 09:58 47.06087 -150.24238 32780 ft 477 kts 118°
2026-05-04 09:58 47.03800 -150.15106 32782 ft 477 kts 118°
2026-05-04 10:00 46.94792 -149.78651 32829 ft 474 kts 119°
2026-05-04 10:04 46.79181 -149.15591 32877 ft 458 kts 121°
2026-05-04 10:04 46.76979 -149.06859 32920 ft 460 kts 121°
2026-05-04 10:05 46.74750 -148.98085 32922 ft 462 kts 121°
2026-05-04 10:05 46.72509 -148.89270 32934 ft 463 kts 121°
2026-05-04 10:06 46.70297 -148.80541 32910 ft 452 kts 123°
2026-05-04 10:06 46.68127 -148.72038 32943 ft 452 kts 123°
2026-05-04 10:08 46.60340 -148.41888 32963 ft 453 kts 124°
2026-05-04 10:08 46.58112 -148.33316 32976 ft 452 kts 124°
2026-05-04 10:09 46.55883 -148.24779 32977 ft 452 kts 124°
2026-05-04 10:09 46.53649 -148.16253 32983 ft 451 kts 124°
2026-05-04 10:10 46.51414 -148.07750 32964 ft 450 kts 124°
2026-05-04 10:10 46.49188 -147.99323 32984 ft 451 kts 124°
2026-05-04 10:11 46.46928 -147.90801 33003 ft 453 kts 124°
2026-05-04 10:11 46.44658 -147.82264 33016 ft 454 kts 124°
2026-05-04 10:12 46.43889 -147.79378 32907 ft 455 kts 124°
2026-05-04 10:12 46.42763 -147.75153 32952 ft 454 kts 124°
2026-05-04 10:12 46.40485 -147.66629 33008 ft 453 kts 124°
2026-05-04 10:13 46.38196 -147.58106 33035 ft 454 kts 124°
2026-05-04 10:13 46.35899 -147.49585 33048 ft 454 kts 124°
2026-05-04 10:14 46.33596 -147.41073 32966 ft 453 kts 124°
2026-05-04 10:16 46.24354 -147.07211 32972 ft 454 kts 123°
2026-05-04 10:16 46.22019 -146.98731 33050 ft 455 kts 123°
2026-05-04 10:17 46.19665 -146.90218 33060 ft 458 kts 123°
2026-05-04 10:19 46.10142 -146.56046 33069 ft 460 kts 123°
2026-05-04 10:19 46.07737 -146.47495 33079 ft 460 kts 123°
2026-05-04 10:20 46.05326 -146.38949 33038 ft 460 kts 123°
2026-05-04 10:20 46.02913 -146.30427 33078 ft 459 kts 123°
2026-05-04 10:21 46.00495 -146.21920 33082 ft 460 kts 123°
2026-05-04 10:21 45.98063 -146.13397 33082 ft 460 kts 123°
2026-05-04 10:22 45.94422 -146.00687 33087 ft 460 kts 123°
2026-05-04 10:23 45.91974 -145.92176 33095 ft 460 kts 123°
2026-05-04 10:25 45.82142 -145.58290 33097 ft 460 kts 123°
2026-05-04 10:25 45.79678 -145.49875 33116 ft 461 kts 123°
2026-05-04 10:26 45.77188 -145.41399 33119 ft 462 kts 123°
2026-05-04 10:26 45.74694 -145.32931 33098 ft 461 kts 122°
2026-05-04 10:27 45.72196 -145.24481 33116 ft 461 kts 122°
2026-05-04 10:27 45.69688 -145.16022 33123 ft 461 kts 122°
2026-05-04 10:28 45.67174 -145.07577 33122 ft 461 kts 122°
2026-05-04 10:28 45.64658 -144.99152 33096 ft 460 kts 122°
2026-05-04 10:29 45.62162 -144.90823 33121 ft 459 kts 122°
2026-05-04 10:29 45.59637 -144.82426 33146 ft 459 kts 122°
2026-05-04 10:30 45.57110 -144.74053 33129 ft 460 kts 122°
2026-05-04 10:30 45.54573 -144.65671 33114 ft 460 kts 122°
2026-05-04 10:31 45.52023 -144.57278 33138 ft 462 kts 122°
2026-05-04 10:32 45.42993 -144.27763 33138 ft 466 kts 122°
2026-05-04 10:33 45.40381 -144.19289 33155 ft 468 kts 122°
2026-05-04 10:33 45.37754 -144.10796 33152 ft 469 kts 122°
2026-05-04 10:34 45.35129 -144.02336 33104 ft 470 kts 122°
2026-05-04 10:34 45.32487 -143.93848 33145 ft 470 kts 122°
2026-05-04 10:35 45.29830 -143.85344 33148 ft 471 kts 122°
2026-05-04 10:35 45.27165 -143.76839 33150 ft 472 kts 122°
2026-05-04 10:36 45.24489 -143.68327 33132 ft 472 kts 121°
2026-05-04 10:36 45.21804 -143.59820 33161 ft 473 kts 121°
2026-05-04 10:37 45.19108 -143.51301 33169 ft 474 kts 122°
2026-05-04 10:37 45.16411 -143.42807 33167 ft 475 kts 122°
2026-05-04 10:39 45.06836 -143.12880 33176 ft 479 kts 121°
2026-05-04 10:40 45.04072 -143.04303 33180 ft 479 kts 121°
2026-05-04 10:40 45.01299 -142.95728 33174 ft 479 kts 121°
2026-05-04 10:41 44.98541 -142.87222 33174 ft 479 kts 121°
2026-05-04 10:41 44.95760 -142.78675 33179 ft 478 kts 121°
2026-05-04 10:42 44.92975 -142.70147 33182 ft 478 kts 121°
2026-05-04 10:42 44.90187 -142.61636 33182 ft 478 kts 121°
2026-05-04 10:43 44.87394 -142.53138 33185 ft 477 kts 121°
2026-05-04 10:45 44.76156 -142.19225 33185 ft 480 kts 121°
2026-05-04 10:45 44.73317 -142.10723 33186 ft 481 kts 121°
2026-05-04 10:46 44.70467 -142.02218 33193 ft 481 kts 120°
2026-05-04 10:46 44.67607 -141.93706 33198 ft 481 kts 121°
2026-05-04 10:47 44.64757 -141.85255 33199 ft 482 kts 121°
2026-05-04 10:47 44.61879 -141.76746 33179 ft 481 kts 120°
2026-05-04 10:49 44.50356 -141.42949 33201 ft 480 kts 120°
2026-05-04 10:50 44.47454 -141.34506 33205 ft 481 kts 120°
2026-05-04 10:52 44.35761 -141.00743 33208 ft 483 kts 120°
2026-05-04 10:52 44.32818 -140.92309 33207 ft 483 kts 120°
2026-05-04 10:54 44.20980 -140.58657 33212 ft 483 kts 119°
2026-05-04 10:56 44.09551 -140.26553 33209 ft 482 kts 119°
2026-05-04 10:57 44.06555 -140.18200 33203 ft 482 kts 118°
2026-05-04 10:57 44.03556 -140.09855 33209 ft 482 kts 118°
2026-05-04 10:58 44.00557 -140.01524 33206 ft 482 kts 117°
2026-05-04 10:58 43.98148 -139.92800 33200 ft 485 kts 110°
2026-05-04 10:59 43.96035 -139.83975 33207 ft 485 kts 110°
2026-05-04 10:59 43.93887 -139.75092 33210 ft 485 kts 110°
2026-05-04 11:00 43.91710 -139.66227 33213 ft 485 kts 110°
2026-05-04 11:02 43.82894 -139.30849 33208 ft 485 kts 110°
2026-05-04 11:05 43.66111 -138.64927 33199 ft 485 kts 110°
2026-05-04 11:06 43.63860 -138.56223 33192 ft 485 kts 110°
2026-05-04 11:06 43.61584 -138.47457 33198 ft 485 kts 111°
2026-05-04 11:10 43.45465 -137.86274 33198 ft 485 kts 110°
2026-05-04 11:12 43.36097 -137.51419 33171 ft 485 kts 110°
2026-05-04 11:12 43.33740 -137.42726 33174 ft 485 kts 110°
2026-05-04 11:13 43.31377 -137.34040 33173 ft 485 kts 110°
2026-05-04 11:13 43.29025 -137.25430 33180 ft 485 kts 110°
2026-05-04 11:14 43.26651 -137.16769 33177 ft 484 kts 109°
2026-05-04 11:16 43.17115 -136.82278 33169 ft 483 kts 109°
2026-05-04 11:16 43.14717 -136.73681 33163 ft 483 kts 109°
2026-05-04 11:17 43.12311 -136.65086 33161 ft 483 kts 109°
2026-05-04 11:19 43.02642 -136.30834 33160 ft 483 kts 109°
2026-05-04 11:19 43.00206 -136.22277 33155 ft 483 kts 109°
2026-05-04 11:20 42.97763 -136.13729 33160 ft 483 kts 109°
2026-05-04 11:20 42.95315 -136.05188 33157 ft 483 kts 109°
2026-05-04 11:22 42.85500 -135.71239 33147 ft 480 kts 109°
2026-05-04 11:23 42.83036 -135.62787 33153 ft 479 kts 109°
2026-05-04 11:25 42.74399 -135.33379 33153 ft 477 kts 108°
2026-05-04 11:25 42.71942 -135.25073 33134 ft 476 kts 108°
2026-05-04 11:27 42.60795 -134.87727 33130 ft 472 kts 108°
2026-05-04 11:28 42.58315 -134.79491 33132 ft 471 kts 108°
2026-05-04 11:28 42.55830 -134.71269 33142 ft 470 kts 107°
2026-05-04 11:29 42.53353 -134.63097 33123 ft 467 kts 107°
2026-05-04 11:29 42.50890 -134.54996 33117 ft 463 kts 107°
2026-05-04 11:33 42.33759 -133.99320 33104 ft 454 kts 107°
2026-05-04 11:33 42.31311 -133.91458 33101 ft 453 kts 107°
2026-05-04 11:34 42.28877 -133.83665 33104 ft 453 kts 107°
2026-05-04 11:34 42.26420 -133.75822 33107 ft 453 kts 107°
2026-05-04 11:35 42.23966 -133.68013 33095 ft 452 kts 107°
2026-05-04 11:35 42.21508 -133.60215 33103 ft 451 kts 107°
2026-05-04 11:36 42.19049 -133.52434 33105 ft 450 kts 107°
2026-05-04 11:36 42.16592 -133.44681 33092 ft 449 kts 107°
2026-05-04 11:37 42.14151 -133.37006 33087 ft 447 kts 107°
2026-05-04 11:37 42.11699 -133.29312 33090 ft 447 kts 107°
2026-05-04 11:38 42.09241 -133.21624 33090 ft 446 kts 107°
2026-05-04 11:38 42.06779 -133.13941 33088 ft 447 kts 107°
2026-05-04 11:39 42.04309 -133.06258 33085 ft 447 kts 107°
2026-05-04 11:41 41.95609 -132.79374 33084 ft 449 kts 108°
2026-05-04 11:41 41.93099 -132.71670 33081 ft 449 kts 108°
2026-05-04 11:42 41.90588 -132.63983 33079 ft 449 kts 108°
2026-05-04 11:42 41.88498 -132.57600 33079 ft 450 kts 108°
2026-05-04 11:43 41.85974 -132.49908 33074 ft 450 kts 108°
2026-05-04 11:43 41.83440 -132.42211 33071 ft 451 kts 108°
2026-05-04 11:44 41.80913 -132.34560 33080 ft 451 kts 108°
2026-05-04 11:44 41.78364 -132.26858 33077 ft 452 kts 109°
2026-05-04 11:45 41.75811 -132.19170 33068 ft 452 kts 109°
2026-05-04 11:45 41.73247 -132.11470 33069 ft 452 kts 109°
2026-05-04 11:46 41.70679 -132.03781 33084 ft 452 kts 109°
2026-05-04 11:46 41.68122 -131.96143 33071 ft 453 kts 109°
2026-05-04 11:47 41.65539 -131.88450 33059 ft 453 kts 109°
2026-05-04 11:47 41.62948 -131.80755 33060 ft 453 kts 109°
2026-05-04 11:48 41.60354 -131.73071 33077 ft 453 kts 109°
2026-05-04 11:48 41.57753 -131.65388 33064 ft 454 kts 109°
2026-05-04 11:49 41.55159 -131.57747 33061 ft 455 kts 109°
2026-05-04 11:49 41.52536 -131.50043 33046 ft 455 kts 109°
2026-05-04 11:50 41.49910 -131.42351 33051 ft 456 kts 110°
2026-05-04 11:50 41.47275 -131.34654 33052 ft 456 kts 110°
2026-05-04 11:51 41.44634 -131.26959 33047 ft 456 kts 110°
2026-05-04 11:51 41.41987 -131.19269 33051 ft 456 kts 110°
2026-05-04 11:52 41.39336 -131.11590 33048 ft 456 kts 110°
2026-05-04 11:52 41.36696 -131.03962 33041 ft 456 kts 110°
2026-05-04 11:53 41.34035 -130.96295 33043 ft 456 kts 110°
2026-05-04 11:53 41.31370 -130.88638 33061 ft 456 kts 110°
2026-05-04 11:55 41.20666 -130.58083 33042 ft 457 kts 111°
2026-05-04 11:56 41.17968 -130.50433 33034 ft 458 kts 111°
2026-05-04 11:56 41.15259 -130.42773 33031 ft 458 kts 111°
2026-05-04 11:57 41.12546 -130.35123 33035 ft 458 kts 111°
2026-05-04 11:57 41.09822 -130.27462 33029 ft 458 kts 111°
2026-05-04 11:58 41.07118 -130.19877 33032 ft 458 kts 111°
2026-05-04 11:58 41.04392 -130.12249 33028 ft 458 kts 111°
2026-05-04 11:59 41.01658 -130.04618 33051 ft 458 kts 111°
2026-05-04 11:59 40.99105 -129.96903 33058 ft 458 kts 106°
2026-05-04 11:59 40.98053 -129.92910 33336 ft 459 kts 105°
2026-05-04 12:00 40.97005 -129.88930 33768 ft 456 kts 105°
2026-05-04 12:00 40.95961 -129.84986 34236 ft 452 kts 105°
2026-05-04 12:00 40.94920 -129.81077 34616 ft 449 kts 105°
2026-05-04 12:00 40.93892 -129.77234 34894 ft 449 kts 105°
2026-05-04 12:01 40.92838 -129.73305 34969 ft 453 kts 106°
2026-05-04 12:02 40.85452 -129.46048 35033 ft 450 kts 106°
2026-05-04 12:03 40.83311 -129.38188 35032 ft 457 kts 106°
2026-05-04 12:03 40.82288 -129.34444 35036 ft 459 kts 106°
2026-05-04 12:04 40.81341 -129.30986 35035 ft 460 kts 106°
2026-05-04 12:05 40.79157 -129.23038 35014 ft 460 kts 106°
2026-05-04 12:05 40.76978 -129.15132 35016 ft 456 kts 106°
2026-05-04 12:06 40.74827 -129.07347 35021 ft 454 kts 106°
2026-05-04 12:06 40.72667 -128.99552 35019 ft 452 kts 106°
2026-05-04 12:07 40.70508 -128.91779 35021 ft 451 kts 106°
2026-05-04 12:07 40.68342 -128.84009 35028 ft 452 kts 106°
2026-05-04 12:08 40.66167 -128.76227 35025 ft 453 kts 106°
2026-05-04 12:08 40.63976 -128.68414 35025 ft 455 kts 106°
2026-05-04 12:09 40.61770 -128.60573 35024 ft 457 kts 107°
2026-05-04 12:09 40.59570 -128.52778 35019 ft 458 kts 107°
2026-05-04 12:10 40.57346 -128.44925 35028 ft 458 kts 106°
2026-05-04 12:10 40.55115 -128.37067 35023 ft 459 kts 107°
2026-05-04 12:11 40.52875 -128.29200 35024 ft 459 kts 107°
2026-05-04 12:11 40.50632 -128.21350 35024 ft 459 kts 107°
2026-05-04 12:12 40.48381 -128.13496 35019 ft 459 kts 107°
2026-05-04 12:12 40.46129 -128.05657 35019 ft 458 kts 107°
2026-05-04 12:14 40.37087 -127.74433 35022 ft 458 kts 107°
2026-05-04 12:15 40.34810 -127.66626 35023 ft 458 kts 107°
2026-05-04 12:15 40.32526 -127.58822 35037 ft 458 kts 107°
2026-05-04 12:16 40.30239 -127.51028 35025 ft 458 kts 107°
2026-05-04 12:16 40.27942 -127.43223 35026 ft 458 kts 107°
2026-05-04 12:17 40.25643 -127.35436 35025 ft 458 kts 107°
2026-05-04 12:17 40.23340 -127.27656 35025 ft 458 kts 107°
2026-05-04 12:18 40.21043 -127.19921 35028 ft 458 kts 107°
2026-05-04 12:18 40.18728 -127.12145 35026 ft 458 kts 107°
2026-05-04 12:19 40.16407 -127.04367 35023 ft 459 kts 107°
2026-05-04 12:19 40.14110 -126.96593 35029 ft 458 kts 106°
2026-05-04 12:20 40.11955 -126.88763 35024 ft 457 kts 105°
2026-05-04 12:20 40.09825 -126.80922 35024 ft 457 kts 105°
2026-05-04 12:21 40.07676 -126.73098 35025 ft 457 kts 105°
2026-05-04 12:21 40.05515 -126.65297 35034 ft 457 kts 106°
2026-05-04 12:22 40.03358 -126.57552 35030 ft 457 kts 106°
2026-05-04 12:22 40.01182 -126.49763 35027 ft 456 kts 106°
2026-05-04 12:23 39.99003 -126.41986 35027 ft 456 kts 106°
2026-05-04 12:23 39.96820 -126.34214 35034 ft 456 kts 106°
2026-05-04 12:24 39.94632 -126.26449 35028 ft 456 kts 106°
2026-05-04 12:24 39.92441 -126.18695 35027 ft 455 kts 106°
2026-05-04 12:25 39.90247 -126.10955 35027 ft 455 kts 106°
2026-05-04 12:25 39.88062 -126.03270 35038 ft 455 kts 107°
2026-05-04 12:26 39.85863 -125.95561 35028 ft 454 kts 107°
2026-05-04 12:26 39.83657 -125.87846 35030 ft 454 kts 107°
2026-05-04 12:27 39.81448 -125.80148 35030 ft 454 kts 107°
2026-05-04 12:27 39.79237 -125.72459 35035 ft 454 kts 107°
2026-05-04 12:28 39.77021 -125.64781 35031 ft 453 kts 107°
2026-05-04 12:28 39.75175 -125.58399 35036 ft 453 kts 107°
2026-05-04 12:29 39.72588 -125.49483 35031 ft 453 kts 107°
2026-05-04 12:29 39.70734 -125.43115 35039 ft 453 kts 107°
2026-05-04 12:30 39.68504 -125.35471 35033 ft 452 kts 107°
2026-05-04 12:30 39.66276 -125.27856 35035 ft 451 kts 107°
2026-05-04 12:31 39.64047 -125.20259 35033 ft 450 kts 107°
2026-05-04 12:31 39.61809 -125.12655 35037 ft 450 kts 107°
2026-05-04 12:32 39.58463 -125.01325 35031 ft 450 kts 107°
2026-05-04 12:33 39.56217 -124.93747 35027 ft 450 kts 107°
2026-05-04 12:33 39.53965 -124.86171 35040 ft 450 kts 107°
2026-05-04 12:34 39.51711 -124.78612 35036 ft 450 kts 107°
2026-05-04 12:34 39.49452 -124.71053 35028 ft 450 kts 107°
2026-05-04 12:35 39.47185 -124.63491 35031 ft 450 kts 107°
2026-05-04 12:35 39.44929 -124.55984 35041 ft 450 kts 107°
2026-05-04 12:36 39.42650 -124.48424 35031 ft 451 kts 107°
2026-05-04 12:36 39.40365 -124.40865 35033 ft 451 kts 107°
2026-05-04 12:37 39.38073 -124.33306 35033 ft 451 kts 107°
2026-05-04 12:37 39.35779 -124.25759 35033 ft 451 kts 107°
2026-05-04 12:38 39.33495 -124.18266 35036 ft 451 kts 107°
2026-05-04 12:38 39.31193 -124.10731 35035 ft 451 kts 107°
2026-05-04 12:39 39.28883 -124.03198 35034 ft 451 kts 107°
2026-05-04 12:39 39.26569 -123.95666 35040 ft 451 kts 107°
2026-05-04 12:40 39.24249 -123.88139 35055 ft 451 kts 107°
2026-05-04 12:40 39.21925 -123.80621 35059 ft 451 kts 107°
2026-05-04 12:41 39.19611 -123.73152 35027 ft 451 kts 107°
2026-05-04 12:41 39.17279 -123.65649 35029 ft 452 kts 108°
2026-05-04 12:42 39.14937 -123.58127 35033 ft 452 kts 108°
2026-05-04 12:42 39.12587 -123.50607 35027 ft 453 kts 108°
2026-05-04 12:43 39.10233 -123.43088 35024 ft 453 kts 108°
2026-05-04 12:43 39.07870 -123.35563 35035 ft 453 kts 109°
2026-05-04 12:44 39.04943 -123.28343 35030 ft 462 kts 123°
2026-05-04 12:44 39.00509 -123.22280 35026 ft 472 kts 137°
2026-05-04 12:45 38.95364 -123.17076 35034 ft 474 kts 139°
2026-05-04 12:45 38.90148 -123.11858 35028 ft 476 kts 139°
2026-05-04 12:46 38.84932 -123.06587 35017 ft 476 kts 138°
2026-05-04 12:46 38.79741 -123.01307 35026 ft 477 kts 139°
2026-05-04 12:47 38.74545 -122.96022 35017 ft 477 kts 139°
2026-05-04 12:47 38.69345 -122.90744 35020 ft 477 kts 139°
2026-05-04 12:48 38.64145 -122.85476 35031 ft 477 kts 140°
2026-05-04 12:48 38.58971 -122.80247 35012 ft 476 kts 140°
2026-05-04 12:49 38.53764 -122.74996 35018 ft 476 kts 140°
2026-05-04 12:49 38.48560 -122.69756 35011 ft 477 kts 141°
2026-05-04 12:50 38.43324 -122.64495 35022 ft 478 kts 141°
2026-05-04 12:50 38.38088 -122.59244 35023 ft 479 kts 141°
2026-05-04 12:51 38.32840 -122.53990 35024 ft 480 kts 142°
2026-05-04 12:51 38.27610 -122.48765 35034 ft 481 kts 142°
2026-05-04 12:52 38.22344 -122.43514 35031 ft 481 kts 142°
2026-05-04 12:52 38.17067 -122.38261 35025 ft 482 kts 143°
2026-05-04 12:53 38.11775 -122.33003 35029 ft 483 kts 143°
2026-05-04 12:53 38.06477 -122.27750 35024 ft 483 kts 143°
2026-05-04 12:54 38.01175 -122.22503 35036 ft 483 kts 143°
2026-05-04 12:54 37.95857 -122.17249 35038 ft 484 kts 143°
2026-05-04 12:55 37.90544 -122.12010 35033 ft 484 kts 144°
2026-05-04 12:55 37.85266 -122.06814 35046 ft 484 kts 144°
2026-05-04 12:56 37.79948 -122.01591 35039 ft 483 kts 144°
2026-05-04 12:56 37.74626 -121.96373 35024 ft 484 kts 145°
2026-05-04 12:57 37.69304 -121.91164 35038 ft 483 kts 145°
2026-05-04 12:57 37.63980 -121.85964 35030 ft 484 kts 145°
2026-05-04 12:58 37.58687 -121.80804 35023 ft 484 kts 146°
2026-05-04 12:58 37.53343 -121.75602 35024 ft 485 kts 146°
2026-05-04 12:59 37.47999 -121.70411 35039 ft 485 kts 146°
2026-05-04 12:59 37.42651 -121.65225 35023 ft 485 kts 147°
2026-05-04 13:00 37.37295 -121.60040 35030 ft 485 kts 147°
2026-05-04 13:00 37.31936 -121.54864 35035 ft 485 kts 147°
2026-05-04 13:01 37.26620 -121.49736 35035 ft 484 kts 148°
2026-05-04 13:01 37.21267 -121.44585 35045 ft 484 kts 148°
2026-05-04 13:02 37.15915 -121.39445 35040 ft 485 kts 148°
2026-05-04 13:02 37.10561 -121.34309 35037 ft 485 kts 149°
2026-05-04 13:03 37.05205 -121.29183 35059 ft 485 kts 149°
2026-05-04 13:03 36.99834 -121.24052 35046 ft 486 kts 149°
2026-05-04 13:04 36.94490 -121.18953 35044 ft 485 kts 151°
2026-05-04 13:04 36.89087 -121.13809 35057 ft 485 kts 151°
2026-05-04 13:05 36.83754 -121.08742 35056 ft 485 kts 151°
2026-05-04 13:05 36.78382 -121.03646 35038 ft 485 kts 152°
2026-05-04 13:06 36.73013 -120.98563 35064 ft 484 kts 152°
2026-05-04 13:06 36.67641 -120.93487 35041 ft 485 kts 152°
2026-05-04 13:07 36.62262 -120.88411 35017 ft 485 kts 153°
2026-05-04 13:07 36.56882 -120.83343 35045 ft 485 kts 153°
2026-05-04 13:08 36.51501 -120.78286 35072 ft 486 kts 153°
2026-05-04 13:08 36.46094 -120.73214 35043 ft 487 kts 153°
2026-05-04 13:09 36.40689 -120.68149 35047 ft 486 kts 153°
2026-05-04 13:09 36.35286 -120.63096 35073 ft 486 kts 153°
2026-05-04 13:10 36.29912 -120.58082 35033 ft 487 kts 153°
2026-05-04 13:10 36.24497 -120.53036 35047 ft 487 kts 153°
2026-05-04 13:11 36.19066 -120.47983 35046 ft 487 kts 153°
2026-05-04 13:11 36.13639 -120.42944 35061 ft 487 kts 153°
2026-05-04 13:12 36.08209 -120.37913 35033 ft 487 kts 152°
2026-05-04 13:12 36.02769 -120.32881 35055 ft 489 kts 152°
2026-05-04 13:13 35.97317 -120.27847 35048 ft 490 kts 152°
2026-05-04 13:13 35.91884 -120.22835 35040 ft 490 kts 152°
2026-05-04 13:14 35.86404 -120.17793 35045 ft 491 kts 152°
2026-05-04 13:14 35.80925 -120.12758 35033 ft 490 kts 152°
2026-05-04 13:15 35.75462 -120.07743 35046 ft 488 kts 153°
2026-05-04 13:15 35.70932 -120.03596 35038 ft 488 kts 153°
2026-05-04 13:16 35.64927 -119.97146 35042 ft 506 kts 140°
2026-05-04 13:16 35.60859 -119.89925 35027 ft 521 kts 129°
2026-05-04 13:17 35.57942 -119.83419 35038 ft 523 kts 128°
2026-05-04 13:17 35.54435 -119.75572 35035 ft 524 kts 129°
2026-05-04 13:18 35.50879 -119.67770 35026 ft 524 kts 129°
2026-05-04 13:18 35.47286 -119.59982 35003 ft 525 kts 130°
2026-05-04 13:19 35.43677 -119.52189 34992 ft 526 kts 131°
2026-05-04 13:19 35.40054 -119.44378 35019 ft 528 kts 131°
2026-05-04 13:20 35.36416 -119.36548 35019 ft 530 kts 131°
2026-05-04 13:20 35.32759 -119.28686 34995 ft 531 kts 132°
2026-05-04 13:21 35.29124 -119.20891 34998 ft 531 kts 132°
2026-05-04 13:21 35.25457 -119.13046 35010 ft 531 kts 132°
2026-05-04 13:22 35.21779 -119.05196 35028 ft 531 kts 132°
2026-05-04 13:22 35.18101 -118.97365 35007 ft 531 kts 133°
2026-05-04 13:23 35.14415 -118.89533 35007 ft 531 kts 133°
2026-05-04 13:23 35.10726 -118.81717 35024 ft 532 kts 133°
2026-05-04 13:24 35.07027 -118.73890 35031 ft 533 kts 133°
2026-05-04 13:24 35.03248 -118.66121 34987 ft 527 kts 139°
2026-05-04 13:25 34.98623 -118.59377 35027 ft 514 kts 149°
2026-05-04 13:25 34.96069 -118.56365 35036 ft 509 kts 153°
2026-05-04 13:25 34.90642 -118.50948 35026 ft 509 kts 155°
2026-05-04 13:26 34.85142 -118.45470 35002 ft 512 kts 155°
2026-05-04 13:26 34.79646 -118.39951 34990 ft 511 kts 155°
2026-05-04 13:27 34.74172 -118.34449 34986 ft 508 kts 155°
2026-05-04 13:27 34.68733 -118.29003 34971 ft 504 kts 155°
2026-05-04 13:28 34.63370 -118.23647 34991 ft 501 kts 155°
2026-05-04 13:28 34.57990 -118.18288 34991 ft 500 kts 155°
2026-05-04 13:29 34.52614 -118.12942 34966 ft 499 kts 155°
2026-05-04 13:29 34.47239 -118.07600 34983 ft 499 kts 155°
2026-05-04 13:30 34.41865 -118.02272 34967 ft 499 kts 155°
2026-05-04 13:30 34.36518 -117.96979 34975 ft 500 kts 155°
2026-05-04 13:31 34.31138 -117.91655 34988 ft 501 kts 155°
2026-05-04 13:31 34.25730 -117.86316 35027 ft 503 kts 155°
2026-05-04 13:32 34.20308 -117.80972 34993 ft 504 kts 155°
2026-05-04 13:32 34.14875 -117.75616 34962 ft 503 kts 155°
2026-05-04 13:33 34.09453 -117.70288 35057 ft 503 kts 155°
2026-05-04 13:33 34.04011 -117.64953 35050 ft 504 kts 155°
2026-05-04 13:34 33.98570 -117.59622 35051 ft 504 kts 154°
2026-05-04 13:34 33.93113 -117.54284 35054 ft 505 kts 154°
2026-05-04 13:35 33.90480 -117.51517 35062 ft 516 kts 149°
2026-05-04 13:35 33.85404 -117.45298 35027 ft 522 kts 147°
2026-05-04 13:36 33.80348 -117.38998 35017 ft 524 kts 147°
2026-05-04 13:36 33.75250 -117.32710 35020 ft 526 kts 147°
2026-05-04 13:37 33.70106 -117.26427 35023 ft 528 kts 147°
2026-05-04 13:37 33.64944 -117.20135 35008 ft 529 kts 147°
2026-05-04 13:38 33.59783 -117.13851 35019 ft 528 kts 147°
2026-05-04 13:38 33.54662 -117.07626 35044 ft 527 kts 147°
2026-05-04 13:39 33.49519 -117.01388 35043 ft 527 kts 147°
2026-05-04 13:39 33.44362 -116.95144 35026 ft 526 kts 147°
2026-05-04 13:40 33.39219 -116.88925 35010 ft 525 kts 147°
2026-05-04 13:40 33.34072 -116.82714 35006 ft 524 kts 147°
2026-05-04 13:41 33.28925 -116.76520 35011 ft 525 kts 147°
2026-05-04 13:41 33.23803 -116.70361 35020 ft 526 kts 147°
2026-05-04 13:42 33.16047 -116.61017 35009 ft 532 kts 144°
2026-05-04 13:42 33.11404 -116.53917 35002 ft 554 kts 132°
2026-05-04 13:43 33.07391 -116.46029 34995 ft 557 kts 131°
2026-05-04 13:43 33.03386 -116.38109 34974 ft 556 kts 131°
2026-05-04 13:44 32.99342 -116.30259 34982 ft 555 kts 132°
2026-05-04 13:44 32.95276 -116.22446 34988 ft 555 kts 132°
2026-05-04 13:45 32.91206 -116.14650 34973 ft 554 kts 132°
2026-05-04 13:45 32.87172 -116.06927 34926 ft 552 kts 132°
2026-05-04 13:46 32.83129 -115.99195 34942 ft 550 kts 132°
2026-05-04 13:46 32.79092 -115.91494 34970 ft 549 kts 133°
2026-05-04 13:47 32.75035 -115.83776 34972 ft 552 kts 133°
2026-05-04 13:47 32.70956 -115.76029 34954 ft 554 kts 133°
2026-05-04 13:48 32.66862 -115.68259 34965 ft 555 kts 133°
2026-05-04 13:48 32.62757 -115.60506 34945 ft 555 kts 133°
2026-05-04 13:49 32.58621 -115.52739 34942 ft 556 kts 133°
2026-05-04 13:49 32.54488 -115.44991 34930 ft 556 kts 133°
2026-05-04 13:50 32.50353 -115.37247 34916 ft 556 kts 133°
2026-05-04 13:50 32.46238 -115.29557 34930 ft 556 kts 133°
2026-05-04 13:51 32.42084 -115.21811 34937 ft 558 kts 133°
2026-05-04 13:51 32.37916 -115.14052 34924 ft 559 kts 133°
2026-05-04 13:52 32.31641 -115.02398 34913 ft 560 kts 133°
2026-05-04 13:53 32.27444 -114.94621 34903 ft 560 kts 132°
2026-05-04 13:53 32.23275 -114.86908 34911 ft 561 kts 132°
2026-05-04 13:54 32.16965 -114.75257 34887 ft 560 kts 132°
2026-05-04 13:55 32.10663 -114.63656 34889 ft 559 kts 132°
2026-05-04 13:55 32.04357 -114.52086 34910 ft 558 kts 132°
2026-05-04 13:56 32.00149 -114.44387 34858 ft 558 kts 132°
2026-05-04 13:57 31.93841 -114.32871 34881 ft 558 kts 132°
2026-05-04 13:58 31.85416 -114.17552 34883 ft 560 kts 132°
2026-05-04 13:58 31.79061 -114.06029 34884 ft 559 kts 132°
2026-05-04 13:59 31.74824 -113.98365 34896 ft 559 kts 132°
2026-05-04 14:00 31.68453 -113.86875 34902 ft 559 kts 132°
2026-05-04 14:00 31.62082 -113.75419 34896 ft 558 kts 132°
2026-05-04 14:01 31.57863 -113.67850 34914 ft 558 kts 132°
2026-05-04 14:02 31.51480 -113.56429 34925 ft 558 kts 132°
2026-05-04 14:02 31.47216 -113.48817 34927 ft 559 kts 132°
2026-05-04 14:03 31.42942 -113.41200 34894 ft 559 kts 132°
2026-05-04 14:03 31.39387 -113.34874 34923 ft 558 kts 132°
2026-05-04 14:04 31.33054 -113.23411 34936 ft 561 kts 130°
2026-05-04 14:04 31.28961 -113.15631 34932 ft 561 kts 130°
2026-05-04 14:05 31.22803 -113.03957 34932 ft 561 kts 130°
2026-05-04 14:06 31.18699 -112.96263 34944 ft 561 kts 130°
2026-05-04 14:06 31.14564 -112.88541 34946 ft 561 kts 130°
2026-05-04 14:07 31.10426 -112.80824 34949 ft 561 kts 130°
2026-05-04 14:07 31.06284 -112.73114 34918 ft 561 kts 130°
2026-05-04 14:08 31.02133 -112.65400 34944 ft 561 kts 130°
2026-05-04 14:08 30.97981 -112.57697 34942 ft 561 kts 130°
2026-05-04 14:09 30.91739 -112.46147 34942 ft 562 kts 130°
2026-05-04 14:10 30.85471 -112.34586 34924 ft 563 kts 129°
2026-05-04 14:10 30.81286 -112.26881 34927 ft 563 kts 129°
2026-05-04 14:11 30.77126 -112.19239 34941 ft 563 kts 130°
2026-05-04 14:11 30.70832 -112.07709 34927 ft 563 kts 130°
2026-05-04 14:12 30.66629 -112.00025 34919 ft 563 kts 129°
2026-05-04 14:13 30.60324 -111.88529 34924 ft 562 kts 130°
2026-05-04 14:13 30.56115 -111.80871 34929 ft 562 kts 130°
2026-05-04 14:14 30.51903 -111.73226 34925 ft 562 kts 130°
2026-05-04 14:14 30.45579 -111.61772 34921 ft 562 kts 129°
2026-05-04 14:15 30.37159 -111.46573 34926 ft 562 kts 130°
2026-05-04 14:16 30.30816 -111.35161 34938 ft 562 kts 130°
2026-05-04 14:17 30.24468 -111.23771 34933 ft 560 kts 130°
2026-05-04 14:18 30.18123 -111.12421 34935 ft 560 kts 129°
2026-05-04 14:19 30.09651 -110.97303 34942 ft 561 kts 129°
2026-05-04 14:19 30.05452 -110.89787 34938 ft 560 kts 129°
2026-05-04 14:20 30.01227 -110.82223 34948 ft 560 kts 129°
2026-05-04 14:20 29.97002 -110.74676 34947 ft 560 kts 129°
2026-05-04 14:21 29.90648 -110.63361 34953 ft 560 kts 129°
2026-05-04 14:21 29.86411 -110.55834 34952 ft 560 kts 129°
2026-05-04 14:22 29.82167 -110.48307 34961 ft 560 kts 129°
2026-05-04 14:22 29.77912 -110.40777 34973 ft 561 kts 129°
2026-05-04 14:23 29.71514 -110.29478 34976 ft 562 kts 129°
2026-05-04 14:24 29.67272 -110.22003 34978 ft 562 kts 129°
2026-05-04 14:24 29.62997 -110.14486 34995 ft 561 kts 129°
2026-05-04 14:25 29.58721 -110.06981 34996 ft 562 kts 129°
2026-05-04 14:25 29.52289 -109.95714 34981 ft 562 kts 129°
2026-05-04 14:26 29.47998 -109.88215 35007 ft 562 kts 129°
2026-05-04 14:26 29.43702 -109.80722 34993 ft 561 kts 129°
2026-05-04 14:27 29.39400 -109.73233 34992 ft 562 kts 128°
2026-05-04 14:27 29.35119 -109.65793 34994 ft 562 kts 128°
2026-05-04 14:28 29.30798 -109.58297 35004 ft 562 kts 129°
2026-05-04 14:28 29.26486 -109.50828 35012 ft 562 kts 129°
2026-05-04 14:29 29.17833 -109.35886 35015 ft 562 kts 129°
2026-05-04 14:30 29.13542 -109.28495 35017 ft 562 kts 129°
2026-05-04 14:31 29.07048 -109.17335 35032 ft 562 kts 129°
2026-05-04 14:32 29.02903 -109.10229 35033 ft 562 kts 128°
2026-05-04 14:33 29.00493 -109.06101 35026 ft 562 kts 128°
2026-05-04 14:33 28.96179 -108.98726 35041 ft 562 kts 128°
2026-05-04 14:34 28.91826 -108.91296 35053 ft 563 kts 128°
2026-05-04 14:34 28.87468 -108.83866 35060 ft 563 kts 128°
2026-05-04 14:35 28.83097 -108.76431 35037 ft 562 kts 128°
2026-05-04 14:35 28.78749 -108.69048 35064 ft 560 kts 128°
2026-05-04 14:36 28.74407 -108.61684 35069 ft 559 kts 128°
2026-05-04 14:36 28.70066 -108.54337 35070 ft 558 kts 128°
2026-05-04 14:37 28.65754 -108.47059 35087 ft 558 kts 128°
2026-05-04 14:37 28.61390 -108.39734 35080 ft 559 kts 128°
2026-05-04 14:38 28.57020 -108.32412 35090 ft 559 kts 128°
2026-05-04 14:38 28.52641 -108.25079 35088 ft 560 kts 128°
2026-05-04 14:39 28.48261 -108.17757 35093 ft 560 kts 128°
2026-05-04 14:39 28.43872 -108.10430 35106 ft 560 kts 128°
2026-05-04 14:40 28.37307 -107.99497 35085 ft 560 kts 128°
2026-05-04 14:40 28.32910 -107.92189 35074 ft 560 kts 128°
2026-05-04 14:41 28.28517 -107.84901 35101 ft 558 kts 128°
2026-05-04 14:42 28.19743 -107.70382 35100 ft 557 kts 128°
2026-05-04 14:42 28.15348 -107.63128 35110 ft 558 kts 128°
2026-05-04 14:43 28.10973 -107.55924 35098 ft 559 kts 129°
2026-05-04 14:43 28.06569 -107.48684 35104 ft 558 kts 129°
2026-05-04 14:44 28.02170 -107.41463 35094 ft 556 kts 129°
2026-05-04 14:44 27.97772 -107.34252 35096 ft 556 kts 129°
2026-05-04 14:45 27.93373 -107.27049 35085 ft 555 kts 129°
2026-05-04 14:45 27.88970 -107.19860 35093 ft 556 kts 129°
2026-05-04 14:46 27.84596 -107.12724 35068 ft 555 kts 129°
2026-05-04 14:46 27.80194 -107.05555 35088 ft 555 kts 129°
2026-05-04 14:47 27.75774 -106.98370 35061 ft 556 kts 129°
2026-05-04 14:47 27.71355 -106.91197 35070 ft 556 kts 129°
2026-05-04 14:48 27.66936 -106.84031 35060 ft 555 kts 129°
2026-05-04 14:48 27.62511 -106.76879 35024 ft 556 kts 129°
2026-05-04 14:49 27.58081 -106.69727 35054 ft 555 kts 129°
2026-05-04 14:49 27.53655 -106.62589 35035 ft 556 kts 129°
2026-05-04 14:50 27.49971 -106.56654 35040 ft 557 kts 129°
2026-05-04 14:50 27.44798 -106.48337 35025 ft 557 kts 129°
2026-05-04 14:51 27.40340 -106.41184 35021 ft 557 kts 129°
2026-05-04 14:51 27.36608 -106.35205 35010 ft 557 kts 129°
2026-05-04 14:52 27.32179 -106.28120 35010 ft 557 kts 129°
2026-05-04 14:52 27.27723 -106.21003 35020 ft 557 kts 129°
2026-05-04 14:53 27.23259 -106.13884 35018 ft 557 kts 129°
2026-05-04 14:53 27.18787 -106.06764 35019 ft 558 kts 129°
2026-05-04 14:54 27.14310 -105.99648 34997 ft 558 kts 129°
2026-05-04 14:54 27.09845 -105.92560 35008 ft 554 kts 129°
2026-05-04 14:55 27.05400 -105.85515 35004 ft 552 kts 129°
2026-05-04 14:55 27.00969 -105.78500 35015 ft 549 kts 129°
2026-05-04 14:56 26.96550 -105.71526 34996 ft 548 kts 129°
2026-05-04 14:56 26.92126 -105.64553 35015 ft 549 kts 129°
2026-05-04 14:57 26.87691 -105.57569 35015 ft 551 kts 129°
2026-05-04 14:57 26.83234 -105.50559 35022 ft 553 kts 129°
2026-05-04 14:58 26.78798 -105.43597 35016 ft 554 kts 129°
2026-05-04 14:58 26.74322 -105.36581 35022 ft 554 kts 129°
2026-05-04 14:59 26.69836 -105.29560 35017 ft 554 kts 129°
2026-05-04 15:00 26.63103 -105.19043 34997 ft 552 kts 128°
2026-05-04 15:00 26.58637 -105.12080 35013 ft 550 kts 129°
2026-05-04 15:01 26.51953 -105.01682 35007 ft 548 kts 129°
2026-05-04 15:01 26.47535 -104.94821 35004 ft 547 kts 129°
2026-05-04 15:02 26.43092 -104.87933 35003 ft 548 kts 129°
2026-05-04 15:02 26.38627 -104.81022 34989 ft 549 kts 129°
2026-05-04 15:03 26.35442 -104.76096 35014 ft 549 kts 129°
2026-05-04 15:03 26.33587 -104.73230 34997 ft 549 kts 129°
2026-05-04 15:04 26.29140 -104.66367 35000 ft 549 kts 129°
2026-05-04 15:04 26.24665 -104.59473 35011 ft 549 kts 129°
2026-05-04 15:05 26.20191 -104.52589 35010 ft 549 kts 129°
2026-05-04 15:05 26.15713 -104.45710 35006 ft 549 kts 129°
2026-05-04 15:06 26.11230 -104.38832 35005 ft 548 kts 129°
2026-05-04 15:07 26.04528 -104.28569 34996 ft 546 kts 129°
2026-05-04 15:07 26.00090 -104.21788 35006 ft 545 kts 129°
2026-05-04 15:08 25.95631 -104.14983 34992 ft 545 kts 129°
2026-05-04 15:08 25.91166 -104.08180 35013 ft 545 kts 129°
2026-05-04 15:09 25.86683 -104.01360 34990 ft 545 kts 129°
2026-05-04 15:09 25.82210 -103.94562 35010 ft 545 kts 129°
2026-05-04 15:10 25.75514 -103.84408 35017 ft 545 kts 129°
2026-05-04 15:11 25.68771 -103.74204 35029 ft 547 kts 129°
2026-05-04 15:11 25.64256 -103.67386 35061 ft 549 kts 129°
2026-05-04 15:12 25.59732 -103.60562 35074 ft 550 kts 129°
2026-05-04 15:12 25.55193 -103.53726 35106 ft 550 kts 129°
2026-05-04 15:13 25.50688 -103.46952 35123 ft 550 kts 129°
2026-05-04 15:13 25.46134 -103.40113 35114 ft 550 kts 129°
2026-05-04 15:14 25.41590 -103.33297 35085 ft 550 kts 129°
2026-05-04 15:14 25.37045 -103.26490 35062 ft 550 kts 129°
2026-05-04 15:15 25.32499 -103.19694 35028 ft 549 kts 129°
2026-05-04 15:15 25.27984 -103.12952 35022 ft 548 kts 129°
2026-05-04 15:16 25.21165 -103.02790 35016 ft 548 kts 129°
2026-05-04 15:17 25.14347 -102.92649 35015 ft 548 kts 129°
2026-05-04 15:17 25.07552 -102.82566 35000 ft 548 kts 129°
2026-05-04 15:18 25.03004 -102.75828 35021 ft 546 kts 129°
2026-05-04 15:19 24.96187 -102.65745 35024 ft 546 kts 129°
2026-05-04 15:19 24.89372 -102.55688 35031 ft 546 kts 129°
2026-05-04 15:20 24.84838 -102.49010 35036 ft 547 kts 129°
2026-05-04 15:20 24.80276 -102.42297 35021 ft 547 kts 129°
2026-05-04 15:21 24.75719 -102.35601 35031 ft 546 kts 129°
2026-05-04 15:22 24.68872 -102.25561 35052 ft 547 kts 129°
2026-05-04 15:22 24.62033 -102.15552 35060 ft 548 kts 129°
2026-05-04 15:23 24.57449 -102.08853 35066 ft 548 kts 129°
2026-05-04 15:23 24.52862 -102.02161 35058 ft 548 kts 129°
2026-05-04 15:24 24.43711 -101.88836 35072 ft 545 kts 128°
2026-05-04 15:25 24.39135 -101.82188 35073 ft 545 kts 128°
2026-05-04 15:26 24.32300 -101.72272 35074 ft 546 kts 129°
2026-05-04 15:26 24.25418 -101.62307 35074 ft 547 kts 128°
2026-05-04 15:27 24.18526 -101.52347 35080 ft 547 kts 128°
2026-05-04 15:28 24.11281 -101.42677 35254 ft 549 kts 133°
2026-05-04 15:28 24.06219 -101.36435 35742 ft 547 kts 133°
2026-05-04 15:29 24.03699 -101.33323 35973 ft 546 kts 133°
2026-05-04 15:30 23.93658 -101.20836 36789 ft 546 kts 132°
2026-05-04 15:30 23.86108 -101.11442 37088 ft 551 kts 132°
2026-05-04 15:31 23.78558 -101.02072 37092 ft 545 kts 132°
2026-05-04 15:32 23.66059 -100.86604 37096 ft 544 kts 132°
2026-05-04 15:34 23.53537 -100.71151 37104 ft 544 kts 132°
2026-05-04 15:34 23.46004 -100.61878 37107 ft 545 kts 132°
2026-05-04 15:35 23.38451 -100.52602 37100 ft 546 kts 131°
2026-05-04 15:36 23.30915 -100.43356 37096 ft 546 kts 131°
2026-05-04 15:36 23.25885 -100.37195 37096 ft 545 kts 131°
2026-05-04 15:37 23.20851 -100.31037 37099 ft 544 kts 132°
2026-05-04 15:37 23.15823 -100.24894 37096 ft 543 kts 132°
2026-05-04 15:38 23.10805 -100.18770 37095 ft 542 kts 131°
2026-05-04 15:38 23.06640 -100.13693 37092 ft 541 kts 131°
2026-05-04 15:39 23.01634 -100.07598 37084 ft 540 kts 131°
2026-05-04 15:40 22.94137 -99.98481 37103 ft 539 kts 131°
2026-05-04 15:40 22.89137 -99.92411 37083 ft 539 kts 132°
2026-05-04 15:41 22.84121 -99.86330 37080 ft 540 kts 132°
2026-05-04 15:41 22.79109 -99.80260 37063 ft 540 kts 132°
2026-05-04 15:42 22.74096 -99.74195 37085 ft 539 kts 132°
2026-05-04 15:42 22.69098 -99.68157 37073 ft 538 kts 132°
2026-05-04 15:43 22.64120 -99.62148 37054 ft 538 kts 132°
2026-05-04 15:43 22.59118 -99.56118 37075 ft 538 kts 132°
2026-05-04 15:44 22.54115 -99.50093 37059 ft 537 kts 132°
2026-05-04 15:44 22.49120 -99.44085 37069 ft 536 kts 133°
2026-05-04 15:45 22.44128 -99.38090 37059 ft 536 kts 133°
2026-05-04 15:45 22.39130 -99.32096 37048 ft 536 kts 133°
2026-05-04 15:46 22.34170 -99.26150 37061 ft 536 kts 133°
2026-05-04 15:46 22.29170 -99.20160 37048 ft 537 kts 133°
2026-05-04 15:47 22.24159 -99.14169 37032 ft 537 kts 133°
2026-05-04 15:47 22.19159 -99.08194 37036 ft 537 kts 133°
2026-05-04 15:48 22.14149 -99.02214 37040 ft 535 kts 133°
2026-05-04 15:48 22.06690 -98.93327 37038 ft 534 kts 134°
2026-05-04 15:49 22.01703 -98.87393 37033 ft 534 kts 134°
2026-05-04 15:49 21.96721 -98.81470 37038 ft 533 kts 134°
2026-05-04 15:50 21.91740 -98.75556 37038 ft 533 kts 134°
2026-05-04 15:50 21.86757 -98.69647 37038 ft 532 kts 134°
2026-05-04 15:51 21.81771 -98.63740 37040 ft 532 kts 134°
2026-05-04 15:51 21.76788 -98.57844 37042 ft 532 kts 134°
2026-05-04 15:52 21.71794 -98.51941 37041 ft 532 kts 134°
2026-05-04 15:52 21.66839 -98.46091 37043 ft 532 kts 134°
2026-05-04 15:53 21.61843 -98.40199 37042 ft 533 kts 134°
2026-05-04 15:53 21.56844 -98.34309 37035 ft 533 kts 134°
2026-05-04 15:54 21.51854 -98.28437 37040 ft 532 kts 134°
2026-05-04 15:54 21.46851 -98.22556 37047 ft 532 kts 134°
2026-05-04 15:55 21.41857 -98.16692 37048 ft 532 kts 134°
2026-05-04 15:55 21.36893 -98.10869 37046 ft 532 kts 134°
2026-05-04 15:56 21.31897 -98.05016 37044 ft 532 kts 134°
2026-05-04 15:56 21.26890 -97.99155 37048 ft 532 kts 134°
2026-05-04 15:57 21.21884 -97.93303 37052 ft 532 kts 134°
2026-05-04 15:57 21.16874 -97.87453 37047 ft 533 kts 134°
2026-05-04 15:58 21.11895 -97.81644 37044 ft 533 kts 134°
2026-05-04 15:58 21.06869 -97.75786 37050 ft 533 kts 134°
2026-05-04 15:59 21.01848 -97.69941 37046 ft 533 kts 134°
2026-05-04 15:59 20.96827 -97.64103 37040 ft 532 kts 134°
2026-05-04 16:00 20.91814 -97.58279 37055 ft 532 kts 135°
2026-05-04 16:00 20.86836 -97.52503 37052 ft 531 kts 135°
2026-05-04 16:01 20.81824 -97.46694 37049 ft 531 kts 135°
2026-05-04 16:01 20.76801 -97.40878 37046 ft 531 kts 135°
2026-05-04 16:02 20.71789 -97.35079 37044 ft 531 kts 135°
2026-05-04 16:03 20.64286 -97.26412 37038 ft 531 kts 135°
2026-05-04 16:03 20.59288 -97.20644 37046 ft 529 kts 135°
2026-05-04 16:04 20.54292 -97.14886 37048 ft 527 kts 135°
2026-05-04 16:04 20.46812 -97.06276 37050 ft 526 kts 135°
2026-05-04 16:05 20.41828 -97.00547 37050 ft 526 kts 135°
2026-05-04 16:06 20.34397 -96.92015 37046 ft 526 kts 135°
2026-05-04 16:07 20.24442 -96.80602 37040 ft 525 kts 135°
2026-05-04 16:08 20.14886 -96.68874 37053 ft 527 kts 129°
2026-05-04 16:09 20.03645 -96.53467 37051 ft 527 kts 129°
2026-05-04 16:10 19.94579 -96.41188 37051 ft 527 kts 129°
2026-05-04 16:11 19.85520 -96.28940 37045 ft 527 kts 129°
2026-05-04 16:12 19.71945 -96.10629 37042 ft 527 kts 130°
2026-05-04 16:13 19.62865 -95.98414 37050 ft 527 kts 129°
2026-05-04 16:14 19.53762 -95.86193 37044 ft 528 kts 130°
2026-05-04 16:16 19.42359 -95.70917 37050 ft 528 kts 130°
2026-05-04 16:17 19.30965 -95.55693 37045 ft 528 kts 130°
2026-05-04 16:18 19.21809 -95.43486 37041 ft 528 kts 130°
2026-05-04 16:19 19.10396 -95.28302 37039 ft 528 kts 130°
2026-05-04 16:20 18.98968 -95.13135 37039 ft 526 kts 130°
2026-05-04 16:22 18.87593 -94.98089 37043 ft 523 kts 130°
2026-05-04 16:23 18.74001 -94.80147 37044 ft 522 kts 130°
2026-05-04 16:25 18.60363 -94.62195 37041 ft 523 kts 131°
2026-05-04 16:26 18.45185 -94.42277 37031 ft 524 kts 131°
2026-05-04 16:28 18.33764 -94.27329 37024 ft 523 kts 131°
2026-05-04 16:29 18.17831 -94.06536 37028 ft 522 kts 131°
2026-05-04 16:31 18.06407 -93.91668 37022 ft 523 kts 131°
2026-05-04 16:32 17.92700 -93.73874 37019 ft 524 kts 131°
2026-05-04 16:33 17.83510 -93.61972 37019 ft 525 kts 131°
2026-05-04 16:34 17.76596 -93.53031 37020 ft 525 kts 131°
2026-05-04 16:35 17.62801 -93.35227 37018 ft 525 kts 131°
2026-05-04 16:36 17.55881 -93.26314 37026 ft 525 kts 131°
2026-05-04 16:37 17.48965 -93.17418 37021 ft 525 kts 131°
2026-05-04 16:38 17.39761 -93.05599 37039 ft 525 kts 131°
2026-05-04 16:39 17.28212 -92.90797 37048 ft 525 kts 131°
2026-05-04 16:40 17.18983 -92.78991 37045 ft 524 kts 131°
2026-05-04 16:41 17.07465 -92.64288 37063 ft 524 kts 131°
2026-05-04 16:43 16.95914 -92.49572 37062 ft 523 kts 131°
2026-05-04 16:43 16.88996 -92.40774 37074 ft 521 kts 131°
2026-05-04 16:45 16.75227 -92.23297 37092 ft 521 kts 131°
2026-05-04 16:46 16.63682 -92.08678 37077 ft 522 kts 131°
2026-05-04 16:47 16.54473 -91.97036 37063 ft 521 kts 131°
2026-05-04 16:48 16.45240 -91.85385 37064 ft 521 kts 131°
2026-05-04 16:49 16.35993 -91.73735 37064 ft 521 kts 131°
2026-05-04 16:50 16.26786 -91.62153 37054 ft 520 kts 131°
2026-05-04 16:51 16.19859 -91.53452 37063 ft 520 kts 131°
2026-05-04 16:52 16.10614 -91.41853 37058 ft 520 kts 131°
2026-05-04 16:53 16.04326 -91.32647 37075 ft 522 kts 122°
2026-05-04 16:54 15.96881 -91.19671 37049 ft 522 kts 122°
2026-05-04 16:55 15.85624 -91.00398 37059 ft 520 kts 122°
2026-05-04 16:56 15.76244 -90.84393 37085 ft 518 kts 122°
2026-05-04 16:57 15.70620 -90.74811 37111 ft 518 kts 122°
2026-05-04 16:58 15.63097 -90.62012 37113 ft 519 kts 122°
2026-05-04 17:00 15.51838 -90.42902 37167 ft 516 kts 122°
2026-05-04 17:01 15.42490 -90.27071 37179 ft 516 kts 123°
2026-05-04 17:02 15.34989 -90.14394 37155 ft 516 kts 123°
2026-05-04 17:03 15.29357 -90.04888 37162 ft 517 kts 123°
2026-05-04 17:03 15.23728 -89.95397 37130 ft 517 kts 123°
2026-05-04 17:04 15.16195 -89.82723 37136 ft 516 kts 123°
2026-05-04 17:05 15.08666 -89.70067 37132 ft 516 kts 123°
2026-05-04 17:06 15.03010 -89.60574 37130 ft 516 kts 123°
2026-05-04 17:07 14.97986 -89.52155 37140 ft 516 kts 123°
2026-05-04 17:07 14.93603 -89.44816 37137 ft 516 kts 123°
2026-05-04 17:08 14.87936 -89.35337 37162 ft 516 kts 123°
2026-05-04 17:09 14.84157 -89.29021 37165 ft 516 kts 123°
2026-05-04 17:09 14.80374 -89.22706 37175 ft 517 kts 123°
2026-05-04 17:10 14.70915 -89.06937 37191 ft 518 kts 123°
2026-05-04 17:11 14.67119 -89.00615 37181 ft 518 kts 123°
2026-05-04 17:12 14.61422 -88.91138 37178 ft 517 kts 123°
2026-05-04 17:13 14.52580 -88.76458 37174 ft 516 kts 123°
2026-05-04 17:14 14.44987 -88.63868 37146 ft 517 kts 123°
2026-05-04 17:15 14.39293 -88.54440 37139 ft 516 kts 124°
2026-05-04 17:16 14.31693 -88.41876 37100 ft 516 kts 123°
2026-05-04 17:17 14.24082 -88.29310 37097 ft 516 kts 123°
2026-05-04 17:18 14.16496 -88.16806 37051 ft 514 kts 123°
2026-05-04 17:19 14.08944 -88.04377 37049 ft 512 kts 123°
2026-05-04 17:20 14.01384 -87.91954 37033 ft 512 kts 123°
2026-05-04 17:20 13.95698 -87.82624 37021 ft 513 kts 123°
2026-05-04 17:21 13.88119 -87.70199 37015 ft 514 kts 124°
2026-05-04 17:22 13.84311 -87.63964 37018 ft 515 kts 123°
2026-05-04 17:23 13.76703 -87.51523 36987 ft 512 kts 123°
2026-05-04 17:24 13.71022 -87.42243 36986 ft 510 kts 123°
2026-05-04 17:25 13.63456 -87.29902 37014 ft 510 kts 123°
2026-05-04 17:26 13.55866 -87.17540 36982 ft 513 kts 123°
2026-05-04 17:27 13.46352 -87.02067 36966 ft 513 kts 123°
2026-05-04 17:28 13.38723 -86.89681 36961 ft 512 kts 123°
2026-05-04 17:29 13.27317 -86.71193 36984 ft 512 kts 123°
2026-05-04 17:31 13.17771 -86.55754 36962 ft 512 kts 124°
2026-05-04 17:32 13.08200 -86.40299 36976 ft 513 kts 123°
2026-05-04 17:33 13.00554 -86.27969 36970 ft 510 kts 124°
2026-05-04 17:34 12.92976 -86.15769 36979 ft 508 kts 123°
2026-05-04 17:35 12.83498 -86.00531 36966 ft 506 kts 124°
2026-05-04 17:36 12.79708 -85.94448 36964 ft 506 kts 123°
2026-05-04 17:36 12.75910 -85.88354 36965 ft 506 kts 124°
2026-05-04 17:37 12.72138 -85.82304 36966 ft 506 kts 124°
2026-05-04 17:37 12.68340 -85.76217 36943 ft 506 kts 123°
2026-05-04 17:38 12.64552 -85.70152 36948 ft 505 kts 123°
2026-05-04 17:38 12.60769 -85.64097 36970 ft 504 kts 124°
2026-05-04 17:39 12.55099 -85.55029 36948 ft 504 kts 124°
2026-05-04 17:39 12.51337 -85.49020 36944 ft 504 kts 124°
2026-05-04 17:40 12.47552 -85.42976 36950 ft 504 kts 124°
2026-05-04 17:40 12.43757 -85.36921 36952 ft 505 kts 124°
2026-05-04 17:41 12.39957 -85.30860 36957 ft 506 kts 124°
2026-05-04 17:41 12.36135 -85.24770 36963 ft 506 kts 123°
2026-05-04 17:42 12.32361 -85.18759 36980 ft 506 kts 124°
2026-05-04 17:42 12.28561 -85.12710 36943 ft 505 kts 124°
2026-05-04 17:43 12.24767 -85.06676 36960 ft 503 kts 124°
2026-05-04 17:43 12.20984 -85.00663 36954 ft 502 kts 123°
2026-05-04 17:44 12.17198 -84.94648 36981 ft 502 kts 124°
2026-05-04 17:44 12.13423 -84.88654 36959 ft 501 kts 124°
2026-05-04 17:45 12.09645 -84.82661 36951 ft 501 kts 123°
2026-05-04 17:45 12.05895 -84.76714 36961 ft 501 kts 123°
2026-05-04 17:46 12.02112 -84.70720 36977 ft 501 kts 124°
2026-05-04 17:46 11.98330 -84.64731 36956 ft 502 kts 124°
2026-05-04 17:47 11.94544 -84.58739 36960 ft 502 kts 124°
2026-05-04 17:47 11.90750 -84.52738 36960 ft 503 kts 124°
2026-05-04 17:48 11.86950 -84.46732 36959 ft 505 kts 124°
2026-05-04 17:48 11.83163 -84.40749 36959 ft 504 kts 124°
2026-05-04 17:49 11.79358 -84.34741 36960 ft 504 kts 124°
2026-05-04 17:49 11.75618 -84.28841 36960 ft 503 kts 124°
2026-05-04 17:50 11.71815 -84.22842 36964 ft 503 kts 124°
2026-05-04 17:50 11.68013 -84.16849 36970 ft 502 kts 124°
2026-05-04 17:51 11.64215 -84.10868 36967 ft 502 kts 124°
2026-05-04 17:51 11.60436 -84.04920 36970 ft 503 kts 124°
2026-05-04 17:52 11.56641 -83.98950 36968 ft 501 kts 124°
2026-05-04 17:52 11.52857 -83.93000 36962 ft 499 kts 124°
2026-05-04 17:53 11.49079 -83.87064 36970 ft 498 kts 124°
2026-05-04 17:53 11.45298 -83.81126 36968 ft 499 kts 124°
2026-05-04 17:54 11.41516 -83.75191 36978 ft 499 kts 124°
2026-05-04 17:54 11.37734 -83.69257 36962 ft 499 kts 124°
2026-05-04 17:55 11.33946 -83.63319 36966 ft 500 kts 124°
2026-05-04 17:55 11.30176 -83.57412 36969 ft 500 kts 124°
2026-05-04 17:56 11.26378 -83.51465 36970 ft 501 kts 124°
2026-05-04 17:56 11.22578 -83.45517 36966 ft 501 kts 124°
2026-05-04 17:57 11.18775 -83.39567 36962 ft 500 kts 123°
2026-05-04 17:57 11.14974 -83.33622 36968 ft 500 kts 123°
2026-05-04 17:58 11.11841 -83.28673 36966 ft 500 kts 123°
2026-05-04 17:58 11.07486 -83.21752 36960 ft 499 kts 123°
2026-05-04 17:59 11.04342 -83.16763 36966 ft 499 kts 123°
2026-05-04 18:00 10.98716 -83.07854 36962 ft 499 kts 123°
2026-05-04 18:00 10.94981 -83.01945 36963 ft 498 kts 123°
2026-05-04 18:01 10.91228 -82.96011 36964 ft 498 kts 123°
2026-05-04 18:01 10.87477 -82.90082 36964 ft 498 kts 123°
2026-05-04 18:02 10.81845 -82.81187 36963 ft 498 kts 123°
2026-05-04 18:02 10.78105 -82.75283 36964 ft 499 kts 123°
2026-05-04 18:03 10.74348 -82.69354 36962 ft 499 kts 123°
2026-05-04 18:03 10.70588 -82.63426 36960 ft 499 kts 123°
2026-05-04 18:04 10.66872 -82.57462 36960 ft 499 kts 123°
2026-05-04 18:05 10.61349 -82.48485 36965 ft 499 kts 122°
2026-05-04 18:05 10.57683 -82.42541 36959 ft 499 kts 123°
2026-05-04 18:06 10.52144 -82.33588 36960 ft 499 kts 123°
2026-05-04 18:06 10.48448 -82.27619 36956 ft 498 kts 123°
2026-05-04 18:07 10.44756 -82.21660 36953 ft 497 kts 123°
2026-05-04 18:07 10.41071 -82.15715 36951 ft 496 kts 123°
2026-05-04 18:08 10.37394 -82.09785 36958 ft 495 kts 123°
2026-05-04 18:08 10.33746 -82.03906 36955 ft 495 kts 123°
2026-05-04 18:09 10.26409 -81.92089 36952 ft 494 kts 123°
2026-05-04 18:10 10.22735 -81.86177 36949 ft 495 kts 123°
2026-05-04 18:10 10.19063 -81.80270 36954 ft 495 kts 123°
2026-05-04 18:11 10.15388 -81.74362 36951 ft 495 kts 123°
2026-05-04 18:11 10.11733 -81.68486 36954 ft 495 kts 123°
2026-05-04 18:12 10.08050 -81.62574 36961 ft 495 kts 123°
2026-05-04 18:12 10.04371 -81.56671 36948 ft 494 kts 123°
2026-05-04 18:13 10.00696 -81.50775 36950 ft 493 kts 123°
2026-05-04 18:14 9.95194 -81.41953 36948 ft 493 kts 123°
2026-05-04 18:14 9.91547 -81.36110 36946 ft 492 kts 123°
2026-05-04 18:15 9.84225 -81.24387 36939 ft 485 kts 122°
2026-05-04 18:15 9.82431 -81.21516 36530 ft 482 kts 122°
2026-05-04 18:16 9.80631 -81.18637 35895 ft 481 kts 122°
2026-05-04 18:16 9.78845 -81.15780 35134 ft 482 kts 122°
2026-05-04 18:16 9.77055 -81.12919 34586 ft 478 kts 122°
2026-05-04 18:17 9.73495 -81.07228 33393 ft 474 kts 122°
2026-05-04 18:17 9.71757 -81.04450 32844 ft 471 kts 122°
2026-05-04 18:17 9.68271 -80.98882 31769 ft 464 kts 122°
2026-05-04 18:18 9.66548 -80.96131 31237 ft 461 kts 122°
2026-05-04 18:18 9.64837 -80.93398 30730 ft 458 kts 122°
2026-05-04 18:18 9.63134 -80.90679 30188 ft 456 kts 122°
2026-05-04 18:18 9.61430 -80.87959 29599 ft 454 kts 122°
2026-05-04 18:19 9.57765 -80.82876 28468 ft 447 kts 137°
2026-05-04 18:19 9.55404 -80.80841 27968 ft 443 kts 141°
2026-05-04 18:19 9.53010 -80.78897 27441 ft 440 kts 141°
2026-05-04 18:20 9.50628 -80.76972 26933 ft 437 kts 141°
2026-05-04 18:20 9.48271 -80.75042 26414 ft 434 kts 141°
2026-05-04 18:20 9.45943 -80.73106 25921 ft 432 kts 140°
2026-05-04 18:20 9.43638 -80.71166 25386 ft 430 kts 140°
2026-05-04 18:21 9.41343 -80.69222 24872 ft 428 kts 140°
2026-05-04 18:21 9.39065 -80.67284 24362 ft 427 kts 140°
2026-05-04 18:21 9.36798 -80.65356 23858 ft 426 kts 140°
2026-05-04 18:21 9.34533 -80.63428 23315 ft 425 kts 140°
2026-05-04 18:22 9.32269 -80.61503 22742 ft 423 kts 140°
2026-05-04 18:22 9.30025 -80.59596 22205 ft 420 kts 140°
2026-05-04 18:22 9.27797 -80.57703 21721 ft 417 kts 140°
2026-05-04 18:22 9.25586 -80.55825 21213 ft 413 kts 140°
2026-05-04 18:23 9.23390 -80.53961 20725 ft 411 kts 139°
2026-05-04 18:23 9.21204 -80.52104 20237 ft 408 kts 139°
2026-05-04 18:23 9.19031 -80.50259 19706 ft 407 kts 139°
2026-05-04 18:23 9.16870 -80.48425 19212 ft 404 kts 139°
2026-05-04 18:24 9.14753 -80.46628 18733 ft 402 kts 139°
2026-05-04 18:24 9.12614 -80.44813 18276 ft 398 kts 139°
2026-05-04 18:24 9.10530 -80.43045 18110 ft 386 kts 139°
2026-05-04 18:24 9.08498 -80.41323 17910 ft 375 kts 139°
2026-05-04 18:25 9.06780 -80.39471 17790 ft 351 kts 121°
2026-05-04 18:25 9.05780 -80.37271 17527 ft 341 kts 104°
2026-05-04 18:25 9.05274 -80.34940 17105 ft 338 kts 100°
2026-05-04 18:25 9.04849 -80.32608 16702 ft 336 kts 99°
2026-05-04 18:26 9.04445 -80.30318 16295 ft 324 kts 99°
2026-05-04 18:26 9.04054 -80.28116 15924 ft 312 kts 99°
2026-05-04 18:26 9.03665 -80.25961 15570 ft 310 kts 99°
2026-05-04 18:26 9.03274 -80.23817 15199 ft 309 kts 99°
2026-05-04 18:27 9.02879 -80.21680 14854 ft 309 kts 99°
2026-05-04 18:27 9.02482 -80.19547 14490 ft 309 kts 99°
2026-05-04 18:27 9.02084 -80.17412 14126 ft 309 kts 99°
2026-05-04 18:27 9.01689 -80.15303 13765 ft 309 kts 100°
2026-05-04 18:28 9.01288 -80.13166 13359 ft 309 kts 100°
2026-05-04 18:28 9.00887 -80.11035 12985 ft 308 kts 100°
2026-05-04 18:28 9.00486 -80.08908 12613 ft 307 kts 100°
2026-05-04 18:28 9.00087 -80.06794 12251 ft 305 kts 100°
2026-05-04 18:29 8.99690 -80.04686 11892 ft 304 kts 100°
2026-05-04 18:29 8.99294 -80.02587 11536 ft 303 kts 100°
2026-05-04 18:29 8.98898 -80.00485 11163 ft 303 kts 100°
2026-05-04 18:29 8.98504 -79.98397 10810 ft 302 kts 100°
2026-05-04 18:30 8.97718 -79.94239 10104 ft 300 kts 100°
2026-05-04 18:30 8.97326 -79.92165 9738 ft 300 kts 100°
2026-05-04 18:30 8.96935 -79.90092 9354 ft 299 kts 100°
2026-05-04 18:31 8.96638 -79.88524 9436 ft 290 kts 100°
2026-05-04 18:31 8.96330 -79.86891 8713 ft 282 kts 100°
2026-05-04 18:31 8.95968 -79.84981 8432 ft 279 kts 100°
2026-05-04 18:31 8.95607 -79.83073 8110 ft 278 kts 100°
2026-05-04 18:32 8.95245 -79.81158 7786 ft 277 kts 100°
2026-05-04 18:32 8.94883 -79.79249 7470 ft 276 kts 100°
2026-05-04 18:32 8.94524 -79.77356 7245 ft 271 kts 99°
2026-05-04 18:32 8.94170 -79.75490 6986 ft 268 kts 99°
2026-05-04 18:33 8.93819 -79.73635 6693 ft 268 kts 99°
2026-05-04 18:33 8.93468 -79.71783 6369 ft 268 kts 99°
2026-05-04 18:33 8.93118 -79.69933 6050 ft 268 kts 99°
2026-05-04 18:33 8.92767 -79.68080 5709 ft 268 kts 99°
2026-05-04 18:34 8.92420 -79.66253 5398 ft 267 kts 99°
2026-05-04 18:34 8.92071 -79.64412 5090 ft 267 kts 99°
2026-05-04 18:34 8.91721 -79.62567 4808 ft 264 kts 98°
2026-05-04 18:34 8.91378 -79.60767 4680 ft 255 kts 98°
2026-05-04 18:35 8.91047 -79.59024 4469 ft 252 kts 98°
2026-05-04 18:35 8.90716 -79.57274 4164 ft 253 kts 98°
2026-05-04 18:35 8.90386 -79.55532 3880 ft 251 kts 98°
2026-05-04 18:35 8.90064 -79.53833 3574 ft 242 kts 98°
2026-05-04 18:36 8.89751 -79.52190 3324 ft 239 kts 98°
2026-05-04 18:36 8.89446 -79.50585 3246 ft 229 kts 98°
2026-05-04 18:36 8.89361 -79.49039 3082 ft 213 kts 72°
2026-05-04 18:36 8.90078 -79.47788 2957 ft 204 kts 39°
2026-05-04 18:37 8.91239 -79.46979 2909 ft 204 kts 30°
2026-05-04 18:37 8.92474 -79.46237 2695 ft 213 kts 29°
2026-05-04 18:37 8.93790 -79.45485 2393 ft 217 kts 28°
2026-05-04 18:37 8.95076 -79.44758 2129 ft 201 kts 29°
2026-05-04 18:38 8.96253 -79.44091 1861 ft 186 kts 30°
2026-05-04 18:38 8.97320 -79.43485 1666 ft 168 kts 30°
2026-05-04 18:38 8.98294 -79.42933 1455 ft 151 kts 30°
2026-05-04 18:38 8.99165 -79.42438 1293 ft 142 kts 29°
2026-05-04 18:39 9.00023 -79.41950 1085 ft 140 kts 28°
2026-05-04 18:39 9.00880 -79.41464 928 ft 141 kts 29°
2026-05-04 18:39 9.01733 -79.40980 745 ft 142 kts 30°
2026-05-04 18:39 9.02599 -79.40488 587 ft 143 kts 30°
2026-05-04 18:40 9.03490 -79.39985 365 ft 149 kts 30°
2026-05-04 18:40 9.04384 -79.39477 158 ft 144 kts 30°
2026-05-04 18:40 9.05228 -79.38994 38 ft 132 kts 28°
2026-05-04 18:40 9.05883 -79.38625 37 ft 76 kts 29°
2026-05-04 18:41 9.06187 -79.38450 36 ft 34 kts 29°
2026-05-04 18:41 9.06309 -79.38387 35 ft 12 kts 18°
2026-05-04 18:41 9.06392 -79.38376 34 ft 12 kts
2026-05-04 18:41 9.06471 -79.38376 34 ft 10 kts 359°
2026-05-04 18:42 9.06539 -79.38377 35 ft 10 kts 359°
2026-05-04 18:42 9.06599 -79.38378 35 ft 7 kts 355°
2026-05-04 18:42 9.06640 -79.38401 35 ft 4 kts 315°
2026-05-04 18:42 9.06655 -79.38427 35 ft 4 kts 288°
2026-05-04 18:43 9.06646 -79.38456 35 ft 5 kts 234°
2026-05-04 18:43 9.06619 -79.38479 35 ft 6 kts 214°
2026-05-04 18:43 9.06581 -79.38500 35 ft 7 kts 208°
2026-05-04 18:43 9.06537 -79.38525 35 ft 8 kts 208°
2026-05-04 18:44 9.06498 -79.38546 35 ft 0 kts 208°
2026-05-04 18:44 9.06452 -79.38570 35 ft 8 kts 207°
2026-05-04 18:44 9.06424 -79.38585 35 ft 0 kts 207°
2026-05-04 18:45 9.06357 -79.38622 35 ft 8 kts 222°
2026-05-04 18:45 9.06353 -79.38654 35 ft 7 kts 276°
2026-05-04 18:45 9.06376 -79.38703 35 ft 8 kts 300°
2026-05-04 18:45 9.06384 -79.38758 35 ft 9 kts 250°
2026-05-04 18:46 9.06337 -79.38789 35 ft 9 kts 190°
2026-05-04 18:46 9.06274 -79.38793 35 ft 9 kts 183°
2026-05-04 18:46 9.06212 -79.38803 35 ft 9 kts 198°
2026-05-04 18:46 9.06155 -79.38835 35 ft 10 kts 218°
2026-05-04 18:47 9.06117 -79.38886 35 ft 9 kts 245°
2026-05-04 18:47 9.06087 -79.38944 35 ft 10 kts 231°
2026-05-04 18:47 9.06053 -79.38983 35 ft 3 kts 255°
2026-05-04 18:47 9.06056 -79.39002 35 ft 3 kts 286°
2026-05-04 18:48 9.06070 -79.39022 35 ft 4 kts 309°
2026-05-04 18:48 9.06087 -79.39038 35 ft 2 kts 314°
2026-05-04 18:48 9.06094 -79.39046 35 ft 0 kts 314°